Weather History for KEWN - October, 2014

Change the Weather History Date:

Saturday, October 4, 2014

  Actual Average Record
Temperature  
Mean Temperature 70 °F 68 °F  
Max Temperature 84 °F 78 °F 94 °F (1986)
Min Temperature 56 °F 58 °F 38 °F (1974)
Degree Days  
Heating Degree Days 0 1  
Month to date heating degree days 0 4  
Since 1 July heating degree days 0 11  
Cooling Degree Days 5 5  
Month to date cooling degree days 31 20  
Year to date cooling degree days 2092 1823  
Growing Degree Days 22 (Base 50)    
Moisture  
Dew Point 60 °F    
Average Humidity 60    
Maximum Humidity 87    
Minimum Humidity 32    
Precipitation  
Precipitation T in 0.13 in 1.72 in (1962)
Month to date precipitation 0.01 0.52  
Year to date precipitation 44.63 43.21  
Snow  
Snow 0.00 in - - ()
Month to date snowfall 0.0  
Since 1 July snowfall 0.0  
Snow Depth 0.00 in    
Sea Level Pressure  
Sea Level Pressure 29.73 in    
Wind  
Wind Speed 10 mph (WSW)    
Max Wind Speed 17 mph    
Max Gust Speed 24 mph    
Visibility 10 miles    
Events Rain    
T = Trace of Precipitation, MM = Missing Value Source: NWS Daily Summary

Daily Weather History Graph

Daily Weather History Graph

Search for Another Location

Airport or City:

Trip Planner

Search our weather history database for the weather conditions in past years. The results will help you decide how hot, cold, wet, or windy it might be!

Date:

Astronomy

Oct. 04, 2014 Rise Set
Actual Time 7:05 AM EDT 6:47 PM EDT
Civil Twilight 6:39 AM EDT 7:13 PM EDT
Nautical Twilight 6:10 AM EDT 7:42 PM EDT
Astronomical Twilight 5:41 AM EDT 8:11 PM EDT
Moon 4:15 PM EDT (10/4) 2:40 AM EDT (10/4)
Length of Visible Light 12h 33m
Length of Day
11h 42m
Waxing Gibbous, 81% of the Moon is Illuminated
Oct 4
Waxing Gibbous
Oct 8
Full
Oct 15
Last Quarter
Oct 23
New
Oct 30
First Quarter

Hourly Weather History & Observations

Time (EDT) Temp. Heat Index Dew Point Humidity Pressure Visibility Wind Dir Wind Speed Gust Speed Precip Events Conditions
12:54 AM 77.0 °F - 66.9 °F 71% 29.81 in 10.0 mi South 6.9 mph - 0.00 in Rain Light Rain
1:54 AM 75.9 °F - 68.0 °F 76% 29.78 in 10.0 mi South 6.9 mph - 0.00 in   Mostly Cloudy
2:54 AM 77.0 °F - 69.1 °F 76% 29.75 in 10.0 mi South 8.1 mph - N/A   Overcast
3:54 AM 77.0 °F - 70.0 °F 79% 29.73 in 10.0 mi SSW 12.7 mph 19.6 mph 0.00 in Rain Light Rain
4:40 AM 75.2 °F - 69.8 °F 83% 29.73 in 10.0 mi SW 10.4 mph - 0.00 in   Mostly Cloudy
4:54 AM 75.9 °F - 70.0 °F 82% 29.73 in 10.0 mi SSW 9.2 mph - 0.00 in   Mostly Cloudy
5:07 AM 75.2 °F - 69.8 °F 83% 29.72 in 10.0 mi SSW 9.2 mph - N/A   Mostly Cloudy
5:49 AM 75.2 °F - 69.8 °F 83% 29.72 in 10.0 mi SSW 10.4 mph - N/A   Overcast
5:54 AM 75.0 °F - 70.0 °F 84% 29.72 in 10.0 mi SW 8.1 mph - N/A   Mostly Cloudy
6:54 AM 73.0 °F - 69.1 °F 87% 29.70 in 10.0 mi SSW 6.9 mph - N/A   Clear
7:54 AM 73.0 °F - 68.0 °F 84% 29.72 in 10.0 mi SW 8.1 mph - N/A   Clear
8:54 AM 75.0 °F - 66.9 °F 76% 29.72 in 10.0 mi WSW 9.2 mph - N/A   Clear
9:25 AM 75.2 °F - 66.2 °F 73% 29.73 in 10.0 mi West 11.5 mph 19.6 mph N/A   Mostly Cloudy
9:50 AM 75.2 °F - 64.4 °F 69% 29.72 in 10.0 mi WSW 11.5 mph 18.4 mph N/A   Scattered Clouds
9:54 AM 75.0 °F - 64.9 °F 71% 29.73 in 10.0 mi West 13.8 mph 20.7 mph N/A   Partly Cloudy
10:54 AM 78.1 °F - 64.0 °F 62% 29.71 in 10.0 mi West 10.4 mph - N/A   Clear
11:54 AM 78.1 °F - 63.0 °F 60% 29.70 in 10.0 mi West 9.2 mph - N/A   Scattered Clouds
12:54 PM 81.0 °F 82.2 °F 63.0 °F 54% 29.69 in 10.0 mi West 6.9 mph 18.4 mph N/A   Scattered Clouds
1:54 PM 82.9 °F 82.6 °F 57.9 °F 42% 29.66 in 10.0 mi WSW 9.2 mph - N/A   Partly Cloudy
2:54 PM 82.9 °F 81.8 °F 53.1 °F 36% 29.65 in 10.0 mi WSW 15.0 mph 24.2 mph N/A   Partly Cloudy
3:54 PM 82.0 °F 81.2 °F 53.1 °F 37% 29.65 in 10.0 mi West 16.1 mph 20.7 mph N/A   Partly Cloudy
4:54 PM 79.0 °F - 46.9 °F 32% 29.66 in 10.0 mi WNW 13.8 mph 18.4 mph N/A   Clear
5:54 PM 75.9 °F - 53.1 °F 45% 29.68 in 10.0 mi WNW 11.5 mph 17.3 mph N/A   Clear
6:54 PM 72.0 °F - 50.0 °F 46% 29.71 in 10.0 mi WNW 8.1 mph - N/A   Clear
7:54 PM 66.9 °F - 48.0 °F 51% 29.75 in 10.0 mi WNW 5.8 mph - N/A   Clear
8:54 PM 64.9 °F - 46.0 °F 50% 29.78 in 10.0 mi WNW 8.1 mph - N/A   Clear
9:54 PM 62.1 °F - 45.0 °F 53% 29.82 in 10.0 mi NW 8.1 mph - N/A   Clear
10:54 PM 61.0 °F - 39.9 °F 46% 29.86 in 10.0 mi NNW 11.5 mph - N/A   Clear
11:54 PM 57.9 °F - 37.9 °F 47% 29.89 in 10.0 mi NW 8.1 mph - N/A   Clear